Location: Sevilla
(37.3933°N, 5.9839°W)
Time: 05:46:49
(UTC+02:00)

Vanguard 3 - Pass Details

Date: 29 June 2024
Orbit: 508 x 3231 km, 33.4° (Epoch: 15 July)

Event Time Altitude Azimuth Distance (km) Brightness Sun altitude
Rises 08:55:10 0° 239° (WSW) 7,049 11.3 19.1°
Reaches altitude 10° 09:00:20 10° 236° (WSW) 5,824 11.0 20.1°
Maximum altitude 09:16:37 58° 164° (SSE) 2,411 9.9 23.2°
Drops below altitude 10° 09:26:16 10° 88° (E) 3,608 12.3 25.1°
Sets 09:28:43 0° 84° (E) 4,296 12.2 25.6°
